Location: Jabiru
(12.6667°S, 132.8333°E)
Time: 14:48:58
(UTC+09:30)

Hubble Space Telescope - Visible Passes

Search period start: 16 October 2019 00:00
Search period end: 26 October 2019 00:00
Orbit: 536 x 540 km, 28.5° (Epoch: 14 October)

Date Brightness Start Highest point End Pass type
(mag) Time Alt. Az. Time Alt. Az. Time Alt. Az.
16 Oct 3.1 05:06:50 10° SSW 05:09:53 19° SSE 05:12:55 10° ESE visible
17 Oct 2.8 04:56:19 11° SSW 04:59:25 24° SSE 05:02:48 10° ESE visible
17 Oct 3.2 20:16:30 10° NNW 20:17:13 14° NNW 20:17:13 14° NNW visible
18 Oct 2.4 04:46:45 19° SSW 04:48:56 30° SSE 04:52:36 10° E visible
18 Oct 2.1 20:05:37 10° NW 20:08:05 29° NNW 20:08:05 29° NNW visible
19 Oct 1.9 04:37:18 32° SSW 04:38:26 39° SSE 04:42:18 10° E visible
19 Oct 0.8 19:54:51 10° NW 19:58:54 56° NNE 19:58:58 55° NNE visible
20 Oct 1.4 04:27:58 52° SSE 04:27:58 52° SSE 04:31:56 10° ENE visible
20 Oct 0.6 19:44:11 10° WNW 19:48:20 79° NNE 19:49:51 38° ESE visible
21 Oct 2.0 04:18:44 40° E 04:18:44 40° E 04:21:28 10° ENE visible
21 Oct 0.9 19:33:37 10° WNW 19:37:46 75° SSW 19:40:40 19° ESE visible
22 Oct 3.0 04:09:35 20° ENE 04:09:35 20° ENE 04:10:55 10° ENE visible
22 Oct 2.7 05:45:37 10° WNW 05:47:49 14° NNW 05:50:01 10° N visible
22 Oct 1.4 19:23:09 10° WNW 19:27:13 54° SSW 19:31:18 10° SE visible
22 Oct 3.9 21:06:10 10° SW 21:06:46 12° SW 21:06:46 12° SW visible
23 Oct 2.0 19:12:46 10° W 19:16:41 40° SSW 19:20:37 10° SE visible
23 Oct 3.7 20:56:14 10° SW 20:57:23 13° SSW 20:57:23 13° SSW visible
24 Oct 2.5 19:02:27 10° W 19:06:10 31° SSW 19:09:54 10° SE visible
24 Oct 3.6 20:46:24 10° SSW 20:47:51 12° SSW 20:47:51 12° SSW visible
25 Oct 2.9 18:52:15 10° WSW 18:55:40 25° SSW 18:59:08 10° SE visible
25 Oct 3.6 20:36:50 10° SSW 20:37:34 10° S 20:38:13 10° S visible
